Regional Weather Roundup
Issued by NWS

Home | Current Version | Previous Version | Text Only | Print | Product List | Glossary Off
Versions: 1 2 3 4 5 6 7 8 9 10 11 12 13 14 15 16 17 18 19 20 21 22 23 24 25 26 27 28 29 30 31 32 33 34 35 36 37 38 39 40 41 42 43 44 45 46 47 48 49 50

403
ASUS45 KCYS 050210
RWRWY

WYOMING REGIONAL WEATHER ROUNDUP
NATIONAL WEATHER SERVICE CHEYENNE WY
800 PM MDT WED MAY 04 2016

NOTE:  "FAIR" INDICATES FEW OR NO CLOUDS BELOW 12,000 FEET
WITH NO SIGNIFICANT WEATHER AND/OR OBSTRUCTIONS TO VISIBILITY.

WYZ001-050300-
YELLOWSTONE NATIONAL PARK

CITY           SKY/WX    TMP DP  RH WIND       PRES   REMARKS
LK YELLOWSTONE   N/A     50  33  52 CALM      30.20F
W YELLOWSTONE  NOT AVBL

$$
WYZ002>013-054>058-071-098>099-050300-
NORTHERN WYOMING

CITY           SKY/WX    TMP DP  RH WIND       PRES   REMARKS
JACKSON        NOT AVBL
CODY           FAIR      70  30  23 SE7       30.00S
GREYBULL       FAIR      77  28  16 S6        29.93S
WORLAND        FAIR      65  44  46 SE9       29.95F
SHERIDAN       FAIR      69  44  40 S3        29.96S
BUFFALO        FAIR      68  37  32 NW6       30.03R
GILLETTE       FAIR      63  45  51 CALM      29.99S
HULETT         FAIR      64  41  42 S5        30.00F
NEWCASTLE      FAIR      68  34  28 SE9       30.03S

$$
WYZ014>020-022>026-101>103-050300-
CENTRAL WYOMING

CITY           SKY/WX    TMP DP  RH WIND       PRES   REMARKS
BIG PINEY      FAIR      63  26  24 W5        30.13F
PINEDALE       FAIR      61  23  23 CALM      30.14S
DUBOIS         FAIR      61  19  20 W9        30.13S
LANDER         FAIR      64  27  24 SW12      30.03R
RIVERTON       FAIR      68  33  27 E5        30.04S
CASPER         FAIR      63  39  41 CALM      30.06S
DOUGLAS        FAIR      63  41  44 SE7       30.06S

$$
WYZ021-027>030-104>119-050300-
SOUTHERN WYOMING

CITY           SKY/WX    TMP DP  RH WIND       PRES   REMARKS
EVANSTON       FAIR      60  27  28 S7        30.13S
KEMMERER         N/A     61  23  23 S5        30.14S
FORT BRIDGER   CLEAR     63  27  25 S12       30.16S
ROCK SPRINGS   FAIR      61  26  26 S14       30.14R
DIXON          FAIR      67  30  25 CALM      30.17S
RAWLINS        FAIR      60  30  32 S7        30.15S
SARATOGA       FAIR      57  28  33 W7        30.19S
LARAMIE        MOCLDY    56  38  50 SE10      30.20R
CHEYENNE       FAIR      62  35  36 S10       30.16S
TORRINGTON     FAIR      66  41  40 SE10      30.05S
PINE BLUFFS    FAIR      59  39  47 SE8       30.13R

$$




USA.gov is the U.S. government's official web portal to all federal, state and local government web resources and services.